| time (UTC) | temp F | wind direction | speed MPH | gust MPH | rain 1hr in | rain 24hr in | rain mn in | humidity % | barometer mb |
| 20260505030044 | 64 | 242 | 4.0 | 5.0 | 0.00 | 0.00 | 0.00 | 32 | 1000.9 |
| 20260505025540 | 64 | 354 | 3.0 | 3.0 | 0.00 | 0.00 | 0.00 | 34 | 1001.0 |
| 20260505025039 | 65 | 277 | 5.0 | 6.0 | 0.00 | 0.00 | 0.00 | 35 | 1001.0 |
| 20260505024536 | 65 | 228 | 4.0 | 5.0 | 0.00 | 0.00 | 0.00 | 37 | 1000.6 |
| 20260505024033 | 65 | 105 | 1.0 | 1.0 | 0.00 | 0.00 | 0.00 | 39 | 1000.7 |
| 20260505023530 | 66 | 324 | 2.0 | 3.0 | 0.00 | 0.00 | 0.00 | 38 | 1000.8 |
| 20260505023028 | 66 | 263 | 3.0 | 3.0 | 0.00 | 0.00 | 0.00 | 37 | 1000.5 |
| 20260505022525 | 66 | 273 | 2.0 | 2.0 | 0.00 | 0.00 | 0.00 | 39 | 1000.4 |
| 20260505022022 | 66 | 296 | 3.0 | 5.0 | 0.00 | 0.00 | 0.00 | 39 | 1000.3 |
| 20260505021518 | 66 | 354 | 5.0 | 8.0 | 0.00 | 0.00 | 0.00 | 39 | 1000.2 |
| 20260505021014 | 67 | 318 | 2.0 | 2.0 | 0.00 | 0.00 | 0.00 | 39 | 1000.0 |
| 20260505020509 | 67 | 303 | 6.0 | 9.0 | 0.00 | 0.00 | 0.00 | 38 | 999.8 |
| 20260505020006 | 67 | 55 | 2.0 | 2.0 | 0.00 | 0.00 | 0.00 | 41 | 999.7 |
| 20260505015503 | 67 | 67 | 0.0 | 0.0 | 0.00 | 0.00 | 0.00 | 42 | 999.6 |
| 20260505015000 | 68 | 34 | 3.0 | 3.0 | 0.00 | 0.00 | 0.00 | 41 | 999.4 |
| 20260505014457 | 69 | 320 | 4.0 | 6.0 | 0.00 | 0.00 | 0.00 | 41 | 999.3 |
| 20260505013954 | 69 | 75 | 0.0 | 1.0 | 0.00 | 0.00 | 0.00 | 42 | 999.1 |
| 20260505013451 | 69 | 33 | 2.0 | 3.0 | 0.00 | 0.00 | 0.00 | 41 | 999.1 |
| 20260505012949 | 69 | 96 | 1.0 | 1.0 | 0.00 | 0.00 | 0.00 | 40 | 998.6 |
| 20260505012447 | 70 | 298 | 3.0 | 3.0 | 0.00 | 0.00 | 0.00 | 40 | 998.6 |
| 20260505011943 | 70 | 76 | 1.0 | 2.0 | 0.00 | 0.00 | 0.00 | 41 | 998.5 |
| 20260505011439 | 71 | 226 | 3.0 | 5.0 | 0.00 | 0.00 | 0.00 | 41 | 998.0 |
| 20260505010936 | 71 | 48 | 1.0 | 1.0 | 0.00 | 0.00 | 0.00 | 41 | 997.7 |
| 20260505010432 | 71 | 314 | 3.0 | 3.0 | 0.00 | 0.00 | 0.00 | 41 | 997.9 |
| 20260505005928 | 71 | 289 | 4.0 | 7.0 | 0.00 | 0.00 | 0.00 | 42 | 997.7 |
| 20260505005425 | 72 | 17 | 4.0 | 6.0 | 0.00 | 0.00 | 0.00 | 40 | 997.4 |
| 20260505004923 | 72 | 300 | 3.0 | 5.0 | 0.00 | 0.00 | 0.00 | 41 | 997.3 |
| 20260505004419 | 72 | 48 | 2.0 | 2.0 | 0.00 | 0.00 | 0.00 | 40 | 997.0 |
| 20260505003916 | 72 | 75 | 0.0 | 1.0 | 0.00 | 0.00 | 0.00 | 40 | 996.8 |
| 20260505003413 | 72 | 84 | 1.0 | 1.0 | 0.00 | 0.00 | 0.00 | 39 | 996.4 |
| 20260505002909 | 73 | 304 | 0.0 | 1.0 | 0.00 | 0.00 | 0.00 | 39 | 996.4 |
| 20260505002406 | 73 | 68 | 1.0 | 1.0 | 0.00 | 0.00 | 0.00 | 37 | 996.2 |
| 20260505001904 | 73 | 177 | 3.0 | 3.0 | 0.00 | 0.00 | 0.00 | 37 | 996.2 |
| 20260505001401 | 74 | 128 | 1.0 | 1.0 | 0.00 | 0.00 | 0.00 | 38 | 996.2 |
| 20260505000859 | 74 | 130 | 2.0 | 2.0 | 0.00 | 0.00 | 0.00 | 36 | 996.2 |
| 20260505000358 | 74 | 266 | 3.0 | 3.0 | 0.00 | 0.00 | 0.00 | 36 | 996.1 |
| 20260504235853 | 74 | 245 | 2.0 | 3.0 | 0.00 | 0.00 | 0.00 | 37 | 996.4 |
| 20260504235350 | 74 | 303 | 5.0 | 6.0 | 0.00 | 0.00 | 0.00 | 36 | 996.5 |
| 20260504234846 | 75 | 244 | 3.0 | 3.0 | 0.00 | 0.00 | 0.00 | 37 | 996.6 |
| 20260504234344 | 75 | 98 | 2.0 | 2.0 | 0.00 | 0.00 | 0.00 | 38 | 996.8 |
| 20260504233840 | 75 | 173 | 3.0 | 3.0 | 0.00 | 0.00 | 0.00 | 38 | 996.6 |
| 20260504233336 | 74 | 212 | 5.0 | 7.0 | 0.00 | 0.00 | 0.00 | 39 | 996.9 |
| 20260504232833 | 73 | 257 | 11.0 | 15.0 | 0.00 | 0.00 | 0.00 | 40 | 997.2 |
| 20260504232330 | 76 | 244 | 5.0 | 8.0 | 0.00 | 0.00 | 0.00 | 42 | 997.1 |
| 20260504231827 | 76 | 327 | 2.0 | 2.0 | 0.00 | 0.00 | 0.00 | 36 | 997.1 |
| 20260504231323 | 77 | 226 | 7.0 | 9.0 | 0.00 | 0.00 | 0.00 | 33 | 996.9 |
| 20260504230819 | 77 | 286 | 7.0 | 8.0 | 0.00 | 0.00 | 0.00 | 33 | 996.9 |
| 20260504230318 | 77 | 212 | 7.0 | 9.0 | 0.00 | 0.00 | 0.00 | 34 | 996.9 |
| 20260504225816 | 77 | 231 | 5.0 | 8.0 | 0.00 | 0.00 | 0.00 | 34 | 996.7 |
| 20260504225312 | 78 | 153 | 2.0 | 2.0 | 0.00 | 0.00 | 0.00 | 33 | 996.9 |
| 20260504224809 | 78 | 289 | 3.0 | 6.0 | 0.00 | 0.00 | 0.00 | 34 | 996.8 |
| 20260504224306 | 78 | 197 | 3.0 | 3.0 | 0.00 | 0.00 | 0.00 | 33 | 997.0 |
| 20260504223803 | 79 | 69 | 3.0 | 6.0 | 0.00 | 0.00 | 0.00 | 32 | 996.9 |
| 20260504223258 | 79 | 261 | 4.0 | 7.0 | 0.00 | 0.00 | 0.00 | 32 | 997.1 |
| 20260504222755 | 79 | 207 | 5.0 | 7.0 | 0.00 | 0.00 | 0.00 | 32 | 997.1 |
| 20260504222252 | 80 | 248 | 2.0 | 3.0 | 0.00 | 0.00 | 0.00 | 31 | 997.2 |
| 20260504221750 | 80 | 258 | 5.0 | 7.0 | 0.00 | 0.00 | 0.00 | 31 | 997.2 |
| 20260504221247 | 80 | 199 | 5.0 | 8.0 | 0.00 | 0.00 | 0.00 | 31 | 997.2 |
| 20260504220744 | 80 | 245 | 5.0 | 10.0 | 0.00 | 0.00 | 0.00 | 30 | 997.2 |
| 20260504220241 | 80 | 347 | 5.0 | 7.0 | 0.00 | 0.00 | 0.00 | 31 | 997.4 |
| 20260504215738 | 80 | 84 | 2.0 | 2.0 | 0.00 | 0.00 | 0.00 | 31 | 997.1 |
| 20260504215234 | 79 | 214 | 3.0 | 5.0 | 0.00 | 0.00 | 0.00 | 31 | 997.2 |
| 20260504214730 | 80 | 217 | 4.0 | 6.0 | 0.00 | 0.00 | 0.00 | 30 | 997.4 |
| 20260504214227 | 80 | 263 | 6.0 | 7.0 | 0.00 | 0.00 | 0.00 | 30 | 997.3 |
| 20260504213724 | 80 | 261 | 4.0 | 6.0 | 0.00 | 0.00 | 0.00 | 31 | 997.4 |
| 20260504213220 | 81 | 86 | 3.0 | 3.0 | 0.00 | 0.00 | 0.00 | 30 | 997.4 |
| 20260504212717 | 80 | 169 | 3.0 | 5.0 | 0.00 | 0.00 | 0.00 | 31 | 997.5 |
| 20260504212214 | 79 | 256 | 5.0 | 6.0 | 0.00 | 0.00 | 0.00 | 31 | 997.5 |
| 20260504211711 | 79 | 261 | 4.0 | 6.0 | 0.00 | 0.00 | 0.00 | 33 | 997.6 |
| 20260504211207 | 80 | 143 | 6.0 | 8.0 | 0.00 | 0.00 | 0.00 | 31 | 997.7 |
| 20260504210705 | 80 | 333 | 5.0 | 7.0 | 0.00 | 0.00 | 0.00 | 31 | 997.6 |
| 20260504210202 | 79 | 256 | 8.0 | 15.0 | 0.00 | 0.00 | 0.00 | 31 | 998.1 |
| 20260504205659 | 79 | 162 | 3.0 | 5.0 | 0.00 | 0.00 | 0.00 | 32 | 997.8 |
| 20260504205156 | 80 | 250 | 8.0 | 10.0 | 0.00 | 0.00 | 0.00 | 29 | 998.0 |
| 20260504204655 | 80 | 251 | 6.0 | 9.0 | 0.00 | 0.00 | 0.00 | 29 | 997.9 |
| 20260504204153 | 78 | 255 | 9.0 | 10.0 | 0.00 | 0.00 | 0.00 | 30 | 997.8 |
| 20260504203652 | 79 | 36 | 5.0 | 7.0 | 0.00 | 0.00 | 0.00 | 30 | 997.9 |
| 20260504203149 | 80 | 183 | 2.0 | 2.0 | 0.00 | 0.00 | 0.00 | 32 | 998.0 |
| 20260504202649 | 80 | 213 | 8.0 | 9.0 | 0.00 | 0.00 | 0.00 | 29 | 998.1 |
| 20260504202146 | 80 | 227 | 3.0 | 3.0 | 0.00 | 0.00 | 0.00 | 31 | 998.2 |
| 20260504201643 | 80 | 267 | 7.0 | 9.0 | 0.00 | 0.00 | 0.00 | 29 | 998.1 |
| 20260504201141 | 80 | 237 | 5.0 | 8.0 | 0.00 | 0.00 | 0.00 | 29 | 998.3 |
| 20260504200638 | 80 | 96 | 5.0 | 6.0 | 0.00 | 0.00 | 0.00 | 29 | 998.3 |
| 20260504200134 | 80 | 209 | 3.0 | 3.0 | 0.00 | 0.00 | 0.00 | 30 | 998.3 |
| 20260504195630 | 79 | 127 | 4.0 | 7.0 | 0.00 | 0.00 | 0.00 | 32 | 998.5 |
| 20260504195127 | 79 | 231 | 8.0 | 14.0 | 0.00 | 0.00 | 0.00 | 29 | 998.5 |
| 20260504194623 | 78 | 288 | 4.0 | 6.0 | 0.00 | 0.00 | 0.00 | 30 | 998.6 |
| 20260504194119 | 78 | 225 | 7.0 | 8.0 | 0.00 | 0.00 | 0.00 | 31 | 998.6 |
| 20260504193616 | 78 | 247 | 5.0 | 6.0 | 0.00 | 0.00 | 0.00 | 29 | 998.8 |
| 20260504193114 | 78 | 303 | 4.0 | 7.0 | 0.00 | 0.00 | 0.00 | 31 | 998.8 |
| 20260504192612 | 77 | 210 | 1.0 | 1.0 | 0.00 | 0.00 | 0.00 | 30 | 998.8 |
| 20260504192110 | 78 | 273 | 6.0 | 9.0 | 0.00 | 0.00 | 0.00 | 28 | 998.6 |
| 20260504191608 | 78 | 264 | 6.0 | 8.0 | 0.00 | 0.00 | 0.00 | 30 | 999.0 |
| 20260504191104 | 78 | 306 | 7.0 | 13.0 | 0.00 | 0.00 | 0.00 | 30 | 998.7 |
| 20260504190600 | 78 | 121 | 1.0 | 2.0 | 0.00 | 0.00 | 0.00 | 32 | 998.8 |
| 20260504190056 | 77 | 260 | 7.0 | 11.0 | 0.00 | 0.00 | 0.00 | 31 | 998.7 |
| 20260504185553 | 77 | 52 | 5.0 | 8.0 | 0.00 | 0.00 | 0.00 | 30 | 998.9 |
| 20260504185050 | 77 | 190 | 6.0 | 9.0 | 0.00 | 0.00 | 0.00 | 30 | 999.0 |
| 20260504184545 | 78 | 282 | 5.0 | 8.0 | 0.00 | 0.00 | 0.00 | 31 | 999.2 |
| 20260504184041 | 77 | 144 | 4.0 | 8.0 | 0.00 | 0.00 | 0.00 | 31 | 999.1 |
| 20260504183538 | 78 | 192 | 5.0 | 7.0 | 0.00 | 0.00 | 0.00 | 31 | 998.9 |
| 20260504183037 | 77 | 64 | 1.0 | 2.0 | 0.00 | 0.00 | 0.00 | 34 | 999.3 |
| 20260504182533 | 77 | 137 | 3.0 | 3.0 | 0.00 | 0.00 | 0.00 | 33 | 999.2 |
| 20260504182030 | 76 | 140 | 4.0 | 6.0 | 0.00 | 0.00 | 0.00 | 32 | 999.1 |
| 20260504181527 | 76 | 261 | 5.0 | 6.0 | 0.00 | 0.00 | 0.00 | 31 | 999.1 |
| 20260504181026 | 77 | 278 | 3.0 | 5.0 | 0.00 | 0.00 | 0.00 | 32 | 999.4 |
| 20260504180524 | 76 | 339 | 7.0 | 13.0 | 0.00 | 0.00 | 0.00 | 31 | 999.4 |
| 20260504180023 | 76 | 213 | 7.0 | 11.0 | 0.00 | 0.00 | 0.00 | 31 | 999.5 |
| 20260504175519 | 76 | 272 | 7.0 | 11.0 | 0.00 | 0.00 | 0.00 | 30 | 999.4 |
| 20260504175017 | 76 | 249 | 6.0 | 8.0 | 0.00 | 0.00 | 0.00 | 31 | 999.6 |
| 20260504174514 | 76 | 249 | 6.0 | 8.0 | 0.00 | 0.00 | 0.00 | 31 | 999.4 |
| 20260504174011 | 76 | 263 | 3.0 | 6.0 | 0.00 | 0.00 | 0.00 | 32 | 999.4 |
| 20260504173508 | 76 | 346 | 4.0 | 5.0 | 0.00 | 0.00 | 0.00 | 33 | 999.7 |
| 20260504173005 | 76 | 218 | 8.0 | 11.0 | 0.00 | 0.00 | 0.00 | 31 | 999.6 |
| 20260504172501 | 75 | 243 | 5.0 | 6.0 | 0.00 | 0.00 | 0.00 | 31 | 999.7 |
| 20260504171957 | 75 | 234 | 9.0 | 15.0 | 0.00 | 0.00 | 0.00 | 31 | 1000.0 |
| 20260504171455 | 75 | 231 | 8.0 | 15.0 | 0.00 | 0.00 | 0.00 | 30 | 999.9 |
| 20260504170951 | 74 | 272 | 4.0 | 6.0 | 0.00 | 0.00 | 0.00 | 31 | 999.8 |
| 20260504170448 | 75 | 231 | 7.0 | 15.0 | 0.00 | 0.00 | 0.00 | 30 | 1000.2 |
| 20260504160408 | 73 | 213 | 9.0 | 15.0 | 0.00 | 0.00 | 0.00 | 29 | 1001.0 |
| 20260504150832 | 71 | 130 | 5.0 | 7.0 | 0.00 | 0.00 | 0.00 | 36 | 1001.5 |
| 20260504150328 | 71 | 271 | 3.0 | 3.0 | 0.00 | 0.00 | 0.00 | 38 | 1001.7 |
| 20260504141258 | 66 | 113 | 4.0 | 5.0 | 0.00 | 0.00 | 0.00 | 47 | 1002.0 |
| 20260504140755 | 65 | 270 | 6.0 | 8.0 | 0.00 | 0.00 | 0.00 | 47 | 1002.3 |
| 20260504140250 | 65 | 174 | 4.0 | 6.0 | 0.00 | 0.00 | 0.00 | 47 | 1002.3 |
| 20260504130719 | 59 | 201 | 4.0 | 5.0 | 0.00 | 0.00 | 0.00 | 58 | 1003.1 |
| 20260504130215 | 59 | 63 | 1.0 | 1.0 | 0.00 | 0.00 | 0.00 | 58 | 1003.1 |
| 20260504120139 | 51 | 179 | 2.0 | 2.0 | 0.00 | 0.00 | 0.00 | 74 | 1003.2 |
| 20260504110606 | 45 | 103 | 0.0 | 0.0 | 0.00 | 0.00 | 0.00 | 87 | 1003.1 |
| 20260504100528 | 44 | 87 | 0.0 | 0.0 | 0.00 | 0.00 | 0.00 | 89 | 1003.0 |
| 20260504081922 | 48 | 86 | 0.0 | 0.0 | 0.00 | 0.00 | 0.00 | 84 | 1004.0 |
| 20260504081418 | 48 | 95 | 0.0 | 0.0 | 0.00 | 0.00 | 0.00 | 84 | 1004.1 |
| 20260504080914 | 48 | 60 | 0.0 | 0.0 | 0.00 | 0.00 | 0.00 | 84 | 1004.3 |
| 20260504080411 | 48 | 90 | 0.0 | 0.0 | 0.00 | 0.00 | 0.00 | 84 | 1004.3 |
| 20260504070339 | 49 | 85 | 0.0 | 0.0 | 0.00 | 0.00 | 0.00 | 83 | 1004.5 |
| 20260504050721 | 51 | 60 | 0.0 | 0.0 | 0.00 | 0.00 | 0.00 | 76 | 1005.3 |
| 20260504050218 | 51 | 83 | 0.0 | 0.0 | 0.00 | 0.00 | 0.00 | 76 | 1005.4 |
| 20260504045715 | 51 | 88 | 0.0 | 0.0 | 0.00 | 0.00 | 0.00 | 75 | 1005.3 |
| 20260504045210 | 52 | 88 | 0.0 | 0.0 | 0.00 | 0.00 | 0.00 | 75 | 1005.4 |
| 20260504044708 | 52 | 88 | 0.0 | 0.0 | 0.00 | 0.00 | 0.00 | 74 | 1005.2 |
| 20260504044205 | 52 | 88 | 0.0 | 0.0 | 0.00 | 0.00 | 0.00 | 74 | 1005.4 |
| 20260504043702 | 52 | 86 | 0.0 | 0.0 | 0.00 | 0.00 | 0.00 | 74 | 1005.4 |
| 20260504043159 | 52 | 85 | 0.0 | 0.0 | 0.00 | 0.00 | 0.00 | 74 | 1005.2 |
| 20260504042656 | 52 | 84 | 0.0 | 0.0 | 0.00 | 0.00 | 0.00 | 74 | 1005.2 |
| 20260504042153 | 52 | 83 | 0.0 | 0.0 | 0.00 | 0.00 | 0.00 | 73 | 1005.5 |
| 20260504041648 | 52 | 85 | 0.0 | 0.0 | 0.00 | 0.00 | 0.00 | 72 | 1005.3 |
| 20260504041144 | 53 | 85 | 0.0 | 0.0 | 0.00 | 0.00 | 0.00 | 72 | 1005.3 |
| 20260504040642 | 53 | 88 | 0.0 | 0.0 | 0.00 | 0.00 | 0.00 | 71 | 1005.5 |
| 20260504040139 | 53 | 96 | 0.0 | 0.0 | 0.00 | 0.00 | 0.00 | 70 | 1005.6 |
| 20260504035635 | 53 | 88 | 0.0 | 0.0 | 0.00 | 0.00 | 0.00 | 70 | 1005.5 |
| 20260504035132 | 54 | 90 | 0.0 | 0.0 | 0.00 | 0.00 | 0.00 | 68 | 1005.5 |
| 20260504034630 | 54 | 88 | 0.0 | 0.0 | 0.00 | 0.00 | 0.00 | 68 | 1005.5 |
| 20260504034127 | 54 | 87 | 0.0 | 0.0 | 0.00 | 0.00 | 0.00 | 69 | 1005.5 |
| 20260504033624 | 54 | 85 | 0.0 | 0.0 | 0.00 | 0.00 | 0.00 | 68 | 1005.9 |
| 20260504033122 | 54 | 85 | 0.0 | 0.0 | 0.00 | 0.00 | 0.00 | 68 | 1005.6 |
| 20260504032618 | 54 | 85 | 0.0 | 0.0 | 0.00 | 0.00 | 0.00 | 68 | 1005.7 |
| 20260504032115 | 55 | 84 | 0.0 | 0.0 | 0.00 | 0.00 | 0.00 | 67 | 1005.7 |
| 20260504031613 | 55 | 85 | 0.0 | 0.0 | 0.00 | 0.00 | 0.00 | 67 | 1005.8 |
| 20260504031108 | 55 | 92 | 0.0 | 0.0 | 0.00 | 0.00 | 0.00 | 67 | 1005.7 |
| 20260504030606 | 56 | 90 | 0.0 | 0.0 | 0.00 | 0.00 | 0.00 | 65 | 1005.8 |